Volver al catálogo

NOAA 8 DEB

ActivoPO
NORAD 38840·DEBRIS·🇺🇸 United States

Lanzado Mar 28, 1983 desde Vandenberg Space Force Base

Loading…

Próximos Pases (próximas 24 horas)

TLE

ActualizadoSource: Space-Track

Época: Sep 13, 2026, 10:08 UTC

1 38840U 83022M   26256.42231632  .00021010  00000-0  16211-2 0  9999
2 38840  98.3343 321.9991 0007501 198.9934 222.9286 15.01586270790041

Sigue NOAA 8 DEB en tiempo real con AllMySat

Download on the App Store